www.pogodaiklimat.ru

Погода и климат >> Архив погоды >> Россия >> Якутия >> Шелагонцы


АРХИВ ПОГОДЫ в Шелагонцах

Время (UTC), дата Ветер
(напр.,м/с)
 
Видим.   Явления Облачность Т
(С)
Тd
(С)
f
(%)
Тe
(С)
Тes
(С)
Комфортность P
(гПа)
Po
(гПа)
Тmin
(С)
Tmax
(С)
R
(мм)
R24
(мм)
S
(см)
15 17.01 штиль 0 50 км {снег} 3/0
[Ci fib]
-40.2 -41.6 86 -40 -40 опасность
обморожения
1015.4 981.0
18 17.01 штиль 0 50 км {снег} ясно -42.8 -44.4 84 -43 -43 опасность
обморожения
1016.8 981.9
21 17.01 штиль 0 50 км 4/0
[Cs]
-44.2 -45.9 83 -44 -44 опасность
обморожения
1018.8 983.7
00 18.01 штиль 0 20 км слаб. снег 8/0
[Cs]
-44.5 -45.9 86 -45 -45 опасность
обморожения
1021.1 985.7 -45.2 0.0 19
03 18.01 штиль 0 50 км {снег} 1/0
[Cs]
-45.9 -47.5 84 -46 -46 опасность
обморожения
1023.3 987.7 -46.0
06 18.01 штиль 0 50 км {снег} 1/0
[Cc]
-42.5 -43.8 87 -43 -42 опасность
обморожения
1024.4 989.2
09 18.01 штиль 0 50 км 3/0
[Cc]
-45.1 -46.7 84 -45 -45 опасность
обморожения
1025.6 990.1
12 18.01 штиль 0 50 км ясно -47.1 -48.5 85 -47 -47 опасность
обморожения
1026.8 991.0 -42.5 0.0
15 18.01 штиль 0 50 км ясно -47.0 -48.5 84 -47 -47 опасность
обморожения
1026.0 990.2
18 18.01 штиль 0 50 км 6/0
[Cs]
-45.1 -46.7 84 -45 -45 опасность
обморожения
1023.8 988.4
21 18.01 штиль 0 50 км 9/0
[Ac As Cs]
-41.0 -42.6 84 -41 -41 опасность
обморожения
1020.3 985.5
00 19.01 В 5 4000 м сильн. снег {метель} 10/0
[As op]
-32.7 -33.9 89 -46 -46 опасность
обморожения
1016.2 982.7 -47.4 0.0 19
03 19.01 В 5 2000 м сильн. снег {метель} 10/0
[As op]
-28.7 -29.9 89 -41 -41 опасность
обморожения
1013.3 980.4
06 19.01 В 5 2000 м сильн. снег {метель} 10/0
[As op]
-26.7 -27.9 90 -38 -38 опасность
обморожения
1011.2 978.7
09 19.01 В 1 50 км в посл. час снег {метель} 8/0
[Ac lent]
-25.6 -26.8 90 -29 -29 1010.4 978.1
12 19.01 штиль 0 20 км слаб. снег {метель} 10/0
[Ac As Cs]
-30.6 -31.8 89 -31 -31 опасность
обморожения
1010.5 977.5 -25.5 2
15 19.01 штиль 0 50 км {снег} ясно -33.4 -34.4 91 -33 -33 опасность
обморожения
1009.8 976.5
18 19.01 штиль 0 50 км {снег} ясно -37.0 -38.0 90 -37 -37 опасность
обморожения
1009.3 975.5
21 19.01 штиль 0 50 км 1/0
[Cc]
-39.1 -40.1 90 -39 -39 опасность
обморожения
1008.2 974.1
00 20.01 штиль 0 50 км 8/0
[As trans Ci fib]
-38.4 -39.6 88 -38 -38 опасность
обморожения
1006.2 972.4 -39.9 0.0 21
03 20.01 В 3 50 км 10/0
[As op]
-29.7 -30.9 89 -39 -39 опасность
обморожения
1003.7 971.0
06 20.01 В 5 4000 м сильн. снег 10/0
[As op]
-27.2 -28.4 89 -39 -39 опасность
обморожения
1002.2 970.0
09 20.01 В 3 20 км слаб. снег 10/0
[As op]
-26.1 -27.3 90 -35 -35 опасность
обморожения
1002.1 970.0
12 20.01 В 3 50 км {снег} 6/0
[Ci fib]
-27.4 -28.5 90 -36 -36 опасность
обморожения
1002.5 970.3 -25.8 0.4
15 20.01 В 1 50 км 6/0
[Ci fib]
-35.4 -36.6 89 -40 -40 опасность
обморожения
1003.3 970.0
18 20.01 штиль 0 50 км 4/0
[Ci fib]
-38.0 -39.2 88 -38 -38 опасность
обморожения
1003.5 969.8
21 20.01 штиль 0 50 км 4/0
[Ci fib]
-40.1 -41.0 91 -40 -40 опасность
обморожения
1004.2 970.2
00 21.01 штиль 0 50 км 10/0
[Cc]
-40.2 -41.0 92 -40 -40 опасность
обморожения
1004.9 970.8 -40.4 21
03 21.01 штиль 0 50 км 10/0
[Cc]
-41.1 -42.6 85 -41 -41 опасность
обморожения
1006.7 972.4 -41.3
06 21.01 штиль 0 10 км снег 10/0
[As op Cc]
-37.6 -38.8 88 -38 -38 опасность
обморожения
1007.6 973.7
09 21.01 штиль 0 4000 м сильн. снег 10/0
[As op]
-35.5 -36.6 90 -36 -36 опасность
обморожения
1010.2 976.5
12 21.01 штиль 0 10 км снег 10/0
[As op Cs]
-34.5 -35.6 90 -35 -35 опасность
обморожения
1013.5 979.8 -34.4 0.3
15 21.01 штиль 0 20 км слаб. снег 10/0
[Cs]
-34.5 -35.6 90 -35 -35 опасность
обморожения
1016.6 982.8
18 21.01 штиль 0 50 км {снег} 4/0
[Cs]
-40.0 -41.0 90 -40 -40 опасность
обморожения
1020.4 985.8
21 21.01 штиль 0 20 км слаб. снег 10/0
[Cs]
-39.5 -40.5 90 -40 -40 опасность
обморожения
1024.1 989.4
00 22.01 штиль 0 20 км слаб. снег 10/0
[Cs]
-39.9 -41.0 89 -40 -40 опасность
обморожения
1027.1 992.3 -41.2 0.3 21
03 22.01 штиль 0 50 км {снег} 3/0
[Cc]
-43.0 -43.9 91 -43 -43 опасность
обморожения
1029.9 994.5 -43.1
06 22.01 Ю 1 20 км слаб. снег 8/0
[Cs]
-40.3 -42.1 83 -46 -45 опасность
обморожения
1031.3 996.3
09 22.01 Ю 1 50 км {снег} 6/0
[Cs]
-41.9 -43.2 87 -47 -47 опасность
обморожения
1033.4 998.0
12 22.01 штиль 0 50 км {снег} 3/0
[Ci fib]
-45.1 -46.7 84 -45 -45 опасность
обморожения
1034.6 998.8 -40.3 0.0
15 22.01 штиль 0 50 км ясно -46.2 -47.5 86 -46 -46 опасность
обморожения
1035.1 999.1
18 22.01 штиль 0 50 км ясно -47.0 -48.5 84 -47 -47 опасность
обморожения
1035.7 999.5
21 22.01 штиль 0 50 км ясно -47.4 -48.5 88 -47 -47 опасность
обморожения
1035.3 999.1
00 23.01 штиль 0 50 км 1/0
[Cs]
-47.6 -49.5 81 -48 -48 опасность
обморожения
1035.3 999.0 -47.7 21
03 23.01 штиль 0 50 км 6/0
[Cc]
-47.1 -48.5 85 -47 -47 опасность
обморожения
1034.9 998.7 -48.1
06 23.01 штиль 0 50 км ясно -44.6 -45.9 87 -45 -45 опасность
обморожения
1033.9 998.1
09 23.01 штиль 0 50 км 3/0
[Cc]
-46.1 -47.5 86 -46 -46 опасность
обморожения
1034.2 998.2
12 23.01 штиль 0 50 км 3/0
[Cc]
-47.0 -48.5 84 -47 -47 опасность
обморожения
1034.1 997.9 -44.6
15 23.01 штиль 0 50 км 3/0
[Ci fib]
-47.4 -48.5 88 -47 -47 опасность
обморожения
1033.2 997.2
18 23.01 штиль 0 50 км 3/0
[Ci fib]
-47.5 -49.5 80 -48 -48 опасность
обморожения
1033.4 997.2
21 23.01 штиль 0 50 км 3/0
[Cc]
-48.0 -49.5 84 -48 -48 опасность
обморожения
1032.6 996.4
00 24.01 штиль 0 20 км слаб. снег 10/0
[Cs]
-44.8 -46.7 81 -45 -45 опасность
обморожения
1031.1 995.4 -48.3 0.0 21
03 24.01 штиль 0 50 км {снег} 6/0
[As trans Cs]
-45.4 -46.7 87 -45 -45 опасность
обморожения
1030.6 994.9
06 24.01 Ю 1 50 км {снег} 1/0
[Cc]
-43.5 -45.1 84 -49 -49 опасность
обморожения
1030.5 994.9
09 24.01 штиль 0 50 км 3/0
[Cs]
-43.8 -45.1 87 -44 -44 опасность
обморожения
1031.3 995.7

 

Местоположение метеостанции Шелагонцы (Якутия, Россия): широта 66.25 долгота 114.20 высота над уровнем моря 236 м.

В архиве по умолчанию представлена погода в Шелагонцах за последнюю неделю. Архивные данные за месяц целиком и за предыдущие месяцы, начиная с января 2011 года, Вы можете получить, выбрав интересующий диапазон дат из раскрывающегося списка и нажав кнопку "Ввод!".


*Определитесь, кто Вы:
робот инопланетянин человек

Внимание! Время в таблицах - всемирное. Для получения местного времени необходимо прибавить поправку, которая равна 9 ч.

Смотрите также архив погоды в соседних городах и на ближайших метеорологических станциях:

Погода в Полярном (Якутия, Россия) (96 км)
Погода в Айхале (Якутия, Россия) (129 км)
Погода в Эйке (Якутия, Россия) (146 км)
Погода в Хабардино (Якутия, Россия) (200 км)
Погода в Чумпуруке (Якутия, Россия) (257 км)
Погода в Оленеке (Якутия, Россия) (262 км)
Погода в Ярольине (Якутия, Россия) (269 км)
Погода в Сухане (Якутия, Россия) (316 км)
Погода в Чернышевском (Якутия, Россия) (368 км)
Погода в Нюрбе (Якутия, Россия) (383 км)

Пояснения к столбцам:

Ветер - указаны скорость ветра в м/с - средняя за 10 мин, порывы в срок и между сроками (в фигурных скобках) и направление, откуда дует ветер: С - северный, СВ - северо-восточный, В - восточный, ЮВ - юго-восточный, Ю - южный, ЮЗ - юго-западный, З - западный, СЗ - северо-западный.
Видимость - горизонтальная дальность видимости в метрах или километрах. При видимости от 1 до 10 км при отсутствии осадков обычно наблюдается дымка, при ухудшении видимости до 1 км и менее - туман. В сухую погоду видимость может ухудшаться дымом, пылью или мглою.
Явления - указаны атмосферные явления, наблюдавшиеся в срок или в последний час перед сроком; фигурными скобками обозначены явления, наблюдавшиеся между сроками (за 1-3 часа до срока); квадратными скобками обозначены град или гололедные отложения с указанием их диаметра в мм.
Облачность - указаны через наклонную черту общая и нижняя облачность в баллах и высота нижней границы облаков в метрах; квадратными скобками обозначены формы облаков: Ci - перистые, Cs - перисто-слоистые, Cc - перисто-кучевые, Ac - высококучевые, As - высокослоистые, Sc - слоисто-кучевые, Ns - слоисто-дождевые, Cu - кучевые, Cb - кучево-дождевые. Подробнее классификацию облаков см. в Атласе облаков (PDF).
T - Температура воздуха - температура, измеренная на высоте 2 м над землей.
Td - Температура точки росы - температура, при понижении до которой содержащийся в воздухе водяной пар достигнет насыщения.
f - Относительная влажность воздуха - влажноcть воздуха, измеренная на высоте 2 м над землей.
Te - Эффективная температура - температура, которую ощущает одетый по сезону человек в тени. Характеристика душности погоды. При расчете учитывается влияние влажности воздуха и скорости ветра на теплоощущения человека.
Tes - Эффективная температура на солнце - температура, которую ощущает человек, с поправкой на солнечный нагрев. Характеристика знойности погоды. Зависит от высоты солнца над горизонтом, облачности и скорости ветра. Ночью, в пасмурную погоду, а также при ветре 12 м/с и более поправка равна нулю.
P - Атмосферное давление - приведенное к уровню моря атмосферное давление.
Po - Атмосферное давление - измеренное на уровне метеостанции атмосферное давление.
Tmin - Минимальная температура - минимум температуры воздуха на высоте 2 м над землей.
Tmax - Максимальная температура - максимум температуры воздуха на высоте 2 м над землей.
R - Количество осадков - Количество выпавших осадков за период времени, мм. При наведении курсора мыши на число - период времени, за который выпало указанное количество осадков.
R24 - Количество осадков - Количество выпавших осадков за 24 часа, мм.
S - Снежный покров - Высота снежного покрова, см. При наведении курсора мыши на число - состояние снежного покрова и степень покрытия местности в баллах.